Tracking 31027 objects as of 19-Jul-2025
HD Live streaming from Space Station
objects crossing your sky now

OPS 4682 DEB

Track OPS 4682 DEB now!
10-day predictions


NORAD ID: 38426
Int'l Code: 1965-027EF
Perigee: 1,259.0 km
Apogee: 1,311.0 km
Inclination: 90.2 °
Period: 111.1 minutes
Semi major axis: 7655 km
RCS: 0.007 m2 (small)
Launch date: April 3, 1965
Source: United States (US)
Launch site: AIR FORCE WESTERN TEST RANGE (AFWTR)

Note: This is SATELLITE DEBRIS
Your satellite tracking list
RESURS O1 DEB
Track 1 satellite(s)




NASA's NSSDC Master Catalog

Two Line Element Set (TLE):
1 38426U 65027EF  25194.91243687  .00000428  00000-0  14777-2 0  9996
2 38426  90.2394   2.5448 0033949 320.9991  38.8681 12.95987882591240
Source of the keplerian elements: AFSPC